Weather History for KDAA - December, 2012

Change the Weather History Date:

Wednesday, December 26, 2012

  Actual Average Record
Temperature  
Mean Temperature 36 °F -  
Max Temperature 41 °F 44 °F 57 °F (1997)
Min Temperature 32 °F 26 °F 12 °F (2000)
Degree Days  
Heating Degree Days 28    
Moisture  
Dew Point 33 °F    
Average Humidity 91    
Maximum Humidity 100    
Minimum Humidity 67    
Precipitation  
Precipitation 1.35 in - - ()
Sea Level Pressure  
Sea Level Pressure 29.82 in    
Wind  
Wind Speed 5 mph (North)    
Max Wind Speed 14 mph    
Max Gust Speed 23 mph    
Visibility 4 miles    
Events Rain , Snow    
Averages and records for this station are not official NWS values.
T = Trace of Precipitation, MM = Missing Value Source: NWS Daily Summary

Daily Weather History Graph

Daily Weather History Graph

Search for Another Location

Airport or City:

Trip Planner

Search our weather history database for the weather conditions in past years. The results will help you decide how hot, cold, wet, or windy it might be!

Date:

Astronomy

Dec. 26, 2012 Rise Set
Actual Time 7:25 AM EST 4:53 PM EST
Civil Twilight 6:55 AM EST 5:23 PM EST
Nautical Twilight 6:22 AM EST 5:57 PM EST
Astronomical Twilight 5:49 AM EST 6:29 PM EST
Moon 3:45 PM EST 5:47 AM EST
Length of Visible Light 10h 28m
Length of Day
9h 28m
Waxing Gibbous, 97% of the Moon is Illuminated
Dec 26
Waxing Gibbous
Dec 28
Full
Jan 4
Last Quarter
Jan 11
New
Jan 18
First Quarter

Hourly Weather History & Observations

Time (EST) Temp. Windchill Dew Point Humidity Pressure Visibility Wind Dir Wind Speed Gust Speed Precip Events Conditions
12:55 AM 40.1 °F 38.0 °F 29.8 °F 67% 30.27 in 10.0 mi Variable 3.5 mph - N/A   Overcast
1:55 AM 38.5 °F 35.0 °F 28.9 °F 69% 30.23 in 10.0 mi Variable 4.6 mph - N/A   Overcast
2:55 AM 36.7 °F 34.1 °F 28.2 °F 71% 30.23 in 10.0 mi Variable 3.5 mph - N/A   Scattered Clouds
3:33 AM 35.6 °F 32.8 °F 28.4 °F 75% 30.24 in 10.0 mi Variable 3.5 mph - N/A   Mostly Cloudy
3:55 AM 36.0 °F 32.1 °F 28.8 °F 75% 30.20 in 10.0 mi NE 4.6 mph - N/A   Mostly Cloudy
4:03 AM 35.6 °F 32.8 °F 28.4 °F 75% 30.19 in 10.0 mi Variable 3.5 mph - N/A   Scattered Clouds
4:55 AM 35.6 °F 32.8 °F 26.4 °F 69% 30.20 in 10.0 mi NNE 3.5 mph - N/A   Mostly Cloudy
5:55 AM 35.2 °F 32.4 °F 27.1 °F 72% 30.21 in 10.0 mi Variable 3.5 mph - N/A   Clear
6:13 AM 35.6 °F - 26.6 °F 70% 30.20 in 10.0 mi Calm Calm - N/A   Clear
6:23 AM 35.6 °F 30.7 °F 28.4 °F 75% 30.19 in 5.0 mi Variable 5.8 mph - N/A Snow Light Snow
6:29 AM 33.8 °F 29.6 °F 28.4 °F 81% 30.19 in 2.5 mi Variable 4.6 mph - N/A Snow Light Snow
6:42 AM 33.8 °F - 28.4 °F 81% 30.19 in 3.0 mi Calm Calm - N/A Snow Light Snow
6:46 AM 33.8 °F - 30.2 °F 87% 30.19 in 2.5 mi Calm Calm - N/A Snow Light Snow
6:50 AM 33.8 °F - 30.2 °F 87% 30.19 in 2.0 mi Calm Calm - N/A Snow Light Snow
6:55 AM 32.7 °F 28.3 °F 29.7 °F 88% 30.18 in 2.0 mi NE 4.6 mph - 0.01 in Snow Light Snow
6:57 AM 32.0 °F 28.7 °F 30.2 °F 93% 30.18 in 2.5 mi NE 3.5 mph - N/A Snow Light Snow
6:59 AM 32.0 °F 28.7 °F 30.2 °F 93% 30.18 in 3.0 mi Variable 3.5 mph - N/A Snow Light Snow
7:16 AM 32.0 °F - 30.2 °F 93% 30.16 in 2.5 mi Calm Calm - N/A Snow Light Snow
7:20 AM 32.0 °F 27.5 °F 30.2 °F 93% 30.14 in 2.0 mi NNE 4.6 mph - N/A Snow Light Snow
7:23 AM 32.0 °F 25.6 °F 30.2 °F 93% 30.12 in 1.8 mi NNE 6.9 mph - N/A Snow Light Snow
7:25 AM 32.0 °F 25.6 °F 30.2 °F 93% 30.12 in 1.5 mi Variable 6.9 mph - N/A Snow Light Snow
7:26 AM 32.0 °F 25.6 °F 30.2 °F 93% 30.12 in 1.5 mi Variable 6.9 mph - N/A Snow Light Snow
7:29 AM 32.0 °F 24.8 °F 30.2 °F 93% 30.11 in 1.2 mi NNE 8.1 mph - N/A Snow Light Snow
7:31 AM 32.0 °F 25.6 °F 30.2 °F 93% 30.10 in 1.2 mi Variable 6.9 mph - N/A Snow Light Snow
7:32 AM 32.0 °F 25.6 °F 30.2 °F 93% 30.10 in 1.5 mi NE 6.9 mph - N/A Snow Light Snow
7:34 AM 32.0 °F 25.6 °F 30.2 °F 93% 30.10 in 1.5 mi Variable 6.9 mph - N/A Snow Light Snow
7:35 AM 32.0 °F 26.4 °F 30.2 °F 93% 30.09 in 1.8 mi Variable 5.8 mph - N/A Snow Light Snow
7:36 AM 32.0 °F 28.7 °F 30.2 °F 93% 30.09 in 2.0 mi Variable 3.5 mph - N/A Snow Light Snow
7:38 AM 32.0 °F 25.6 °F 30.2 °F 93% 30.08 in 2.5 mi Variable 6.9 mph - N/A Snow Light Snow
7:39 AM 32.0 °F 24.2 °F 30.2 °F 93% 30.08 in 2.5 mi NE 9.2 mph - N/A   Overcast
7:40 AM 32.0 °F 25.6 °F 30.2 °F 93% 30.08 in 2.5 mi Variable 6.9 mph - N/A Rain Light Freezing Rain
7:41 AM 32.0 °F 27.5 °F 30.2 °F 93% 30.08 in 3.0 mi Variable 4.6 mph - N/A Rain Light Freezing Rain
7:58 AM 32.5 °F - 30.6 °F 92% 30.11 in 5.0 mi Calm Calm - 0.07 in Rain , Snow Light Rain
8:32 AM 32.0 °F 27.5 °F 30.2 °F 93% 30.12 in 6.0 mi Variable 4.6 mph - N/A Rain Light Rain
8:46 AM 32.0 °F 27.5 °F 30.2 °F 93% 30.10 in 2.5 mi Variable 4.6 mph - N/A Snow Light Snow
8:47 AM 32.0 °F 28.7 °F 30.2 °F 93% 30.10 in 2.0 mi Variable 3.5 mph - N/A Snow Light Snow
8:49 AM 32.0 °F 27.5 °F 30.2 °F 93% 30.09 in 1.8 mi Variable 4.6 mph - N/A Snow Light Snow
8:51 AM 32.0 °F - 30.2 °F 93% 30.09 in 1.5 mi Calm Calm - N/A Snow Light Snow
8:55 AM 32.7 °F 29.6 °F 30.7 °F 92% 30.09 in 1.5 mi Variable 3.5 mph - 0.04 in Snow Light Snow
9:05 AM 32.0 °F 28.7 °F 30.2 °F 93% 30.08 in 1.8 mi Variable 3.5 mph - N/A Snow Light Snow
9:06 AM 32.0 °F 28.7 °F 30.2 °F 93% 30.08 in 2.0 mi Variable 3.5 mph - N/A Snow Light Snow
9:08 AM 32.0 °F 28.7 °F 30.2 °F 93% 30.08 in 2.5 mi Variable 3.5 mph - N/A Snow Light Snow
9:09 AM 32.0 °F - 30.2 °F 93% 30.08 in 3.0 mi Calm Calm - N/A Snow Light Snow
9:26 AM 32.0 °F 27.5 °F 30.2 °F 93% 30.09 in 6.0 mi Variable 4.6 mph - N/A Snow Light Snow
9:55 AM 32.9 °F 29.8 °F 31.1 °F 93% 30.08 in 4.0 mi Variable 3.5 mph - 0.06 in Rain Light Rain
10:30 AM 33.8 °F 30.8 °F 32.0 °F 93% 30.02 in 4.0 mi Variable 3.5 mph - N/A Rain Light Rain
10:55 AM 33.4 °F 29.1 °F 31.6 °F 93% 30.01 in 3.0 mi Variable 4.6 mph - 0.10 in Rain Light Rain
11:55 AM 34.0 °F 29.8 °F 32.2 °F 93% 29.91 in 3.0 mi Variable 4.6 mph - 0.14 in Rain Light Rain
12:14 PM 33.8 °F 29.6 °F 32.0 °F 93% 29.86 in 2.5 mi Variable 4.6 mph - N/A Rain Rain
12:21 PM 33.8 °F 27.7 °F 32.0 °F 93% 29.87 in 3.0 mi Variable 6.9 mph - N/A Rain Light Rain
12:29 PM 33.8 °F 27.7 °F 33.8 °F 100% 29.88 in 2.5 mi Variable 6.9 mph - N/A Rain Rain
12:32 PM 33.8 °F 28.6 °F 33.8 °F 100% 29.88 in 2.0 mi Variable 5.8 mph - N/A Rain Rain
12:38 PM 35.6 °F 32.8 °F 32.0 °F 87% 29.88 in 1.8 mi Variable 3.5 mph - N/A Rain Rain
12:53 PM 35.6 °F 29.9 °F 33.8 °F 93% 29.85 in 2.0 mi Variable 6.9 mph - N/A Rain Heavy Rain
12:55 PM 34.9 °F 30.8 °F 33.3 °F 94% 29.85 in 2.0 mi Variable 4.6 mph - 0.23 in Rain Rain
1:01 PM 35.6 °F 29.9 °F 33.8 °F 93% 29.83 in 2.5 mi Variable 6.9 mph - N/A Rain Light Rain
1:05 PM 35.6 °F 29.9 °F 33.8 °F 93% 29.83 in 3.0 mi NNE 6.9 mph - N/A Rain Light Rain
1:15 PM 35.6 °F 31.7 °F 33.8 °F 93% 29.82 in 2.5 mi Variable 4.6 mph - N/A Rain Light Rain
1:24 PM 35.6 °F 31.7 °F 33.8 °F 93% 29.81 in 3.0 mi Variable 4.6 mph - N/A Rain Light Rain
1:55 PM 35.4 °F 29.7 °F 33.8 °F 94% 29.73 in 7.0 mi NE 6.9 mph - 0.10 in Rain Light Rain
2:21 PM 35.6 °F 28.6 °F 33.8 °F 93% 29.69 in 8.0 mi NE 9.2 mph - N/A Rain Light Rain
2:48 PM 37.4 °F 31.4 °F 35.6 °F 93% 29.67 in 3.0 mi ENE 8.1 mph - N/A Rain Light Rain
2:55 PM 37.0 °F 31.0 °F 35.4 °F 94% 29.65 in 4.0 mi NE 8.1 mph - 0.03 in Rain Light Rain
3:17 PM 37.4 °F 31.4 °F 35.6 °F 93% 29.64 in 2.5 mi NE 8.1 mph - N/A Rain Rain
3:20 PM 37.4 °F 32.8 °F 35.6 °F 93% 29.64 in 2.0 mi Variable 5.8 mph - N/A Rain Rain
3:29 PM 37.4 °F 33.8 °F 35.6 °F 93% 29.63 in 2.5 mi Variable 4.6 mph - N/A Rain Rain
3:34 PM 37.4 °F 32.1 °F 37.4 °F 100% 29.62 in 2.0 mi Variable 6.9 mph - N/A Rain Rain
3:38 PM 37.4 °F 32.8 °F 37.4 °F 100% 29.61 in 1.8 mi Variable 5.8 mph - N/A Rain Rain
3:44 PM 39.2 °F 34.2 °F 37.4 °F 93% 29.62 in 1.8 mi Variable 6.9 mph - N/A Rain Rain
3:45 PM 39.2 °F 34.2 °F 37.4 °F 93% 29.62 in 1.8 mi Variable 6.9 mph - N/A Rain Rain
3:46 PM 39.2 °F 33.0 °F 37.4 °F 93% 29.62 in 2.0 mi NNE 9.2 mph - N/A Rain Rain
3:49 PM 39.2 °F 34.2 °F 37.4 °F 93% 29.62 in 1.8 mi NNE 6.9 mph 17.3 mph N/A Rain Rain
3:52 PM 39.2 °F 35.9 °F 37.4 °F 93% 29.63 in 1.5 mi North 4.6 mph 17.3 mph N/A Rain Heavy Rain
3:54 PM 39.2 °F 35.9 °F 37.4 °F 93% 29.62 in 1.2 mi North 4.6 mph 17.3 mph N/A Rain Heavy Rain
3:55 PM 39.2 °F 35.0 °F 37.6 °F 94% 29.61 in 1.2 mi North 5.8 mph 17.3 mph 0.30 in Rain Heavy Rain
3:57 PM 39.2 °F 33.6 °F 37.4 °F 93% 29.60 in 1.0 mi North 8.1 mph 17.3 mph N/A Rain Heavy Rain
4:06 PM 39.2 °F 33.6 °F 37.4 °F 93% 29.56 in 1.2 mi NNE 8.1 mph - N/A Rain Heavy Rain
4:09 PM 39.2 °F 32.5 °F 37.4 °F 93% 29.55 in 1.5 mi NNE 10.4 mph - N/A Rain Rain
4:12 PM 39.2 °F 32.5 °F 37.4 °F 93% 29.55 in 1.5 mi NE 10.4 mph 17.3 mph N/A Rain Rain
4:15 PM 39.2 °F 33.6 °F 37.4 °F 93% 29.53 in 1.8 mi NNE 8.1 mph 17.3 mph N/A Rain Rain
4:16 PM 39.2 °F 33.0 °F 37.4 °F 93% 29.53 in 1.8 mi NNE 9.2 mph 17.3 mph N/A Rain Rain
4:21 PM 39.2 °F 32.5 °F 37.4 °F 93% 29.52 in 2.0 mi NNE 10.4 mph 17.3 mph N/A Rain Light Rain
4:23 PM 39.2 °F 33.0 °F 37.4 °F 93% 29.52 in 2.0 mi NNE 9.2 mph 16.1 mph N/A Rain Light Rain
4:25 PM 39.2 °F 35.0 °F 37.4 °F 93% 29.52 in 2.5 mi NE 5.8 mph 16.1 mph N/A Rain Light Rain
4:28 PM 39.2 °F 32.5 °F 37.4 °F 93% 29.52 in 3.0 mi NNE 10.4 mph 16.1 mph N/A Rain Light Rain
4:38 PM 39.2 °F 35.9 °F 37.4 °F 93% 29.51 in 2.5 mi Variable 4.6 mph - N/A Rain Light Rain
4:40 PM 39.2 °F 37.0 °F 37.4 °F 93% 29.51 in 2.5 mi Variable 3.5 mph - N/A Rain Light Rain
4:47 PM 39.2 °F 35.9 °F 37.4 °F 93% 29.51 in 3.0 mi Variable 4.6 mph - N/A   Overcast
4:55 PM 39.7 °F 34.9 °F 38.1 °F 94% 29.52 in 3.0 mi NNW 6.9 mph - 0.17 in   Overcast
4:58 PM 39.2 °F 34.2 °F 37.4 °F 93% 29.53 in 4.0 mi Variable 6.9 mph - N/A   Overcast
5:19 PM 39.2 °F 33.0 °F 37.4 °F 93% 29.51 in 6.0 mi NW 9.2 mph 17.3 mph N/A Rain Light Rain
5:31 PM 39.2 °F 33.6 °F 37.4 °F 93% 29.49 in 7.0 mi NNW 8.1 mph - N/A Rain Light Rain
5:55 PM 39.9 °F 35.8 °F 38.3 °F 94% 29.48 in 5.0 mi Variable 5.8 mph - 0.03 in Rain Light Rain
6:55 PM 40.6 °F 36.7 °F 39.0 °F 94% 29.45 in 8.0 mi Variable 5.8 mph - 0.01 in Rain Light Rain
7:09 PM 41.0 °F 36.4 °F 39.2 °F 93% 29.44 in 10.0 mi Variable 6.9 mph - N/A   Light Drizzle
7:16 PM 41.0 °F 35.2 °F 39.2 °F 93% 29.44 in 10.0 mi WNW 9.2 mph - N/A Rain Light Rain
7:55 PM 40.5 °F 34.1 °F 38.8 °F 94% 29.43 in 10.0 mi West 10.4 mph - 0.02 in Rain Light Rain
8:44 PM 37.4 °F 29.3 °F 35.6 °F 93% 29.42 in 10.0 mi WNW 12.7 mph - N/A Rain Light Rain
8:55 PM 37.4 °F 30.3 °F 35.8 °F 94% 29.43 in 8.0 mi WNW 10.4 mph - 0.01 in Rain Light Rain
9:07 PM 37.4 °F 29.8 °F 35.6 °F 93% 29.43 in 8.0 mi WNW 11.5 mph - N/A Rain Light Rain
9:55 PM 37.2 °F 29.1 °F 35.6 °F 94% 29.43 in 5.0 mi NW 12.7 mph - 0.02 in Rain Light Rain
10:04 PM 37.4 °F 28.9 °F 35.6 °F 93% 29.43 in 9.0 mi WNW 13.8 mph - N/A Rain Light Rain
10:14 PM 37.4 °F 29.8 °F 35.6 °F 93% 29.43 in 10.0 mi West 11.5 mph - N/A   Light Drizzle
10:15 PM 37.4 °F 28.9 °F 35.6 °F 93% 29.43 in 10.0 mi West 13.8 mph - N/A   Overcast
10:16 PM 37.4 °F 29.3 °F 35.6 °F 93% 29.43 in 10.0 mi West 12.7 mph - N/A   Overcast
10:28 PM 37.4 °F 29.3 °F 35.6 °F 93% 29.43 in 10.0 mi WNW 12.7 mph - N/A   Overcast
10:45 PM 37.4 °F 28.9 °F 35.6 °F 93% 29.43 in 10.0 mi WNW 13.8 mph - N/A Rain Light Rain
10:55 PM 36.9 °F 28.2 °F 34.7 °F 92% 29.43 in 9.0 mi WNW 13.8 mph 21.9 mph 0.00 in Rain Light Rain
11:06 PM 37.4 °F 29.3 °F 35.6 °F 93% 29.43 in 6.0 mi WNW 12.7 mph 18.4 mph N/A Rain Light Rain
11:55 PM 36.7 °F 28.4 °F 34.7 °F 93% 29.44 in 6.0 mi WNW 12.7 mph 23.0 mph 0.01 in Rain Light Rain